Observations for Trim Patrick St
| Time | AQI | Temp °C | Hum % | Pres Pa | CO μg/m³ | H₂S μg/m³ | NO μg/m³ | NO₂ μg/m³ | O₃ μg/m³ | SO₂ μg/m³ | PM1 μg/m³ | PM2.5 μg/m³ | PM10 μg/m³ |
|---|---|---|---|---|---|---|---|---|---|---|---|---|---|
| Saturday 1 August 2026 | |||||||||||||
| 08:50 | 1 | 17.3 | 68 | 38,460 | 0.34 | 0 | 2.6 | 7.56 | 25.31 | 0 | 4.57 | 8.93 | 9.83 |
| 08:49 | 1 | 17.2 | 68 | 38,460 | 0.33 | 0 | 2.59 | 8.23 | 27.81 | 0 | 4.57 | 9.64 | 10.6 |
| 08:47 | 1 | 17 | 68 | 38,460 | 0.33 | 0 | 2.56 | 7.01 | 26.02 | 0 | 4.57 | 9.6 | 10.56 |
| 08:46 | 1 | 16.9 | 69 | 38,460 | 0.35 | 0 | 2.53 | 8.5 | 22.95 | 0 | 4.57 | 8.83 | 9.71 |
| 08:45 | 1 | 16.8 | 69 | 38,460 | 0.33 | 0 | 2.51 | 11.37 | 27.27 | 0 | 3.71 | 8.11 | 8.92 |
| 08:44 | 1 | 16.8 | 69 | 38,460 | 0.33 | 0 | 2.54 | 9.21 | 24.82 | 0 | 5.43 | 10.27 | 11.3 |
| 08:43 | 1 | 16.7 | 69 | 38,460 | 0.33 | 0 | 2.5 | 10.92 | 25.58 | 0 | 5.43 | 10.26 | 11.29 |
| 08:41 | 1 | 16.5 | 70 | 38,460 | 0.34 | 0 | 2.49 | 11.32 | 23.06 | 0 | 4.57 | 8.79 | 9.67 |
| 08:40 | 1 | 16.4 | 70 | 38,460 | 0.35 | 0 | 2.51 | 13.76 | 19.08 | 0 | 4.57 | 8.78 | 9.66 |
| 08:39 | 1 | 16.4 | 70 | 38,460 | 0.34 | 0 | 2.5 | 10.64 | 25.69 | 0 | 4.57 | 9.49 | 10.44 |
| 08:38 | 1 | 16.3 | 70 | 38,460 | 0.34 | 0 | 2.51 | 11.16 | 20.98 | 0 | 4.57 | 8.76 | 9.64 |
| 08:37 | 1 | 16.2 | 70 | 38,460 | 0.32 | 0 | 2.63 | 10.39 | 25.62 | 0 | 4.57 | 9.48 | 10.43 |
| 08:36 | 1 | 16.2 | 70 | 38,460 | 0.34 | 0 | 2.69 | 8.39 | 23.79 | 0 | 4.57 | 9.46 | 10.41 |
| 08:35 | 1 | 16.1 | 70 | 38,460 | 0.33 | 0 | 2.72 | 9.39 | 24.6 | 0 | 5.43 | 8.74 | 9.61 |
| 08:34 | 1 | 16 | 70 | 38,460 | 0.33 | 0 | 2.73 | 9.64 | 21.82 | 0 | 4.57 | 8.72 | 9.59 |
| 08:32 | 1 | 15.9 | 71 | 38,460 | 0.35 | 0 | 2.59 | 11.98 | 22.7 | 0 | 2.86 | 7.96 | 8.76 |
| 08:31 | 1 | 15.8 | 71 | 38,460 | 0.36 | 0 | 2.69 | 11.23 | 21.2 | 0 | 4.57 | 10.11 | 11.12 |
| 08:30 | 1 | 15.7 | 71 | 38,460 | 0.37 | 0 | 2.67 | 20.2 | 20.26 | 0 | 4.57 | 9.38 | 10.32 |
| 08:29 | 1 | 15.7 | 72 | 38,460 | 0.36 | 0 | 2.64 | 19 | 15.51 | 0 | 6.29 | 10.78 | 11.86 |
| 08:28 | 1 | 15.6 | 72 | 38,460 | 0.36 | 0 | 2.81 | 10.5 | 22.42 | 0 | 5.43 | 10.78 | 11.86 |